Showing default

FENGYUN 1C, 25730

Orbit data source: Space-Track

FENGYUN 1C, 25730 is a payload satellite owned by CNMSC (CN) in SSO that was launched on Mon, 10 May 1999 UTC via a CHANG ZHENG 4B launch vehicle from the Taiyaun Space Center, China (TSC). Payload-class satellites include a variety of spacecraft equipped with specific instruments for various scientific and technological missions. These include communications satellites like Starlink; space stations such as the ISS; scientific satellites like the Hubble; Earth observation satellites from companies like Planet Labs, Umbra, and HawkEye 360; GPS; miniature CubeSats for education and research; and military/defense satellites.

Loading next visibility...
Identifier
25730, 1999-025A
Orbit
SSO
Country
Flag of CNCN / PRC
Related business
Manufacturer
SISE
Mission
Non-operational Civil Imaging
Bus & Motor
FY-1, Unknown motor
Mass
958 kg wet, ~958 kg dry
Launch date (UTC)
1999-05-10 (27 years ago)
Launch vehicle
CHANG ZHENG 4B
Launch site
Taiyaun Space Center, China (TSC)
Object type
Payload
Rocket body
Debris
Shape & HBR
Box + 2 Pan, 4.3 m
Radar Cross Section
5.659 m², Medium (>0.1 m² and < 1m²)

Expand to show TLE details & history
Last TLE update: 7 hours ago

TLE from 7 hours ago
0 FENGYUN 1C
1 25730U 99025A   26072.93520632  .00002011  00000-0  85001-3 0  9990
2 25730  98.8692 145.2083 0012269 158.1182 202.0524 14.26670248384370
Epoch: 2026-03-13T22:26Z
TLE epoch observation values (Epoch: 2026-03-13T22:26:41.826Z)
Latitude
0.00001°
Longitude
-3.02958°
Altitude
813.97 km
Speed
7.442 km/s
True Right ascension
09h 40m 49s
True Declination
0° 00' 00"
Sunlit
Object was in full shadow at epoch
Visualization orbit readout
Latitude
Unknown
Longitude
Unknown
Altitude
Unknown
Speed
Unknown
Apparent Right ascension
Unknown
Apparent Declination
Unknown
Sunlit
N/A
Visualization observer readout
Local Sidereal Time
09:45:20
Azimuth
Unknown
Elevation
Unknown
Doppler factor
Unknown
Orbital elements
Apogee altitude
808.847 km
Perigee altitude
791.233 km
Semi-major axis
7,178.177 km
Eccentricity
0.00123
Inclination
98.8692°
RAAN
145.2083°
Arg. of periapsis
158.1182°
True anomaly
201.99969°
Mean anomaly
202.0524°
Eccentric anomaly
202.02604°
Mean motion
3.5688 °/min
Orbital period
100.87 mins
BSTAR
0.00085001
Loading maneuver chart data...
Computing Atmospheric mass density...

Documentation

Showing up to 5 results
|